Location: Unspecified
(48.2082°N, 0.0000°E)
Time: 04:35:24
(UTC+00:00)

Vanguard 1 - Pass Details

Date: 04 July 2019
Orbit: 653 x 3830 km, 34.3° (Epoch: 20 July)

Event Time Altitude Azimuth Distance (km) Brightness Sun altitude
Rises 05:12:50 0° 277° (W) 7,484 14.0 8.8°
Reaches altitude 10° 05:19:33 10° 267° (W) 6,009 13.5 9.8°
Maximum altitude 05:32:01 26° 221° (SW) 3,709 12.6 11.8°
Drops below altitude 10° 05:40:18 10° 170° (S) 3,876 13.1 13.0°
Sets 05:43:31 0° 157° (SSE) 4,464 13.5 13.6°
